FW3814 Weather Reports


time (UTC)temp
F
wind
direction
speed
knots
gust
knots
rain 1hr
in
rain 24hr
in
rain mn
in
humidity
%
barometer
mb
20260508062003 56 15 2.6 3.5 0.00 0.00 0.00 76 1014.0
20260508061503 56 15 2.6 3.5 0.00 0.00 0.00 76 1013.9
20260508061003 56 6 2.6 3.5 0.00 0.00 0.00 76 1013.9
20260508060503 56 6 2.6 3.5 0.00 0.00 0.00 77 1013.9
20260508060003 56 4 2.6 3.5 0.00 0.00 0.00 77 1013.9
20260508055503 55 360 2.6 3.5 0.00 0.00 0.00 77 1013.8
20260508055024 55 5 2.6 3.5 0.00 0.00 0.00 77 1013.7
20260508054503 55 17 2.6 4.3 0.00 0.00 0.00 77 1013.8
20260508054003 55 11 2.6 4.3 0.00 0.00 0.00 78 1013.7
20260508053503 55 9 3.5 5.2 0.00 0.00 0.00 78 1013.6
20260508053003 55 14 4.3 5.2 0.00 0.00 0.00 78 1013.6
20260508052503 55 9 3.5 5.2 0.00 0.00 0.00 78 1013.6
20260508052024 55 5 3.5 4.3 0.00 0.00 0.00 78 1013.5
20260508051503 55 356 4.3 4.3 0.00 0.00 0.00 78 1013.4
20260508051003 54 332 3.5 4.3 0.00 0.00 0.00 80 1013.4
20260508050524 54 343 3.5 4.3 0.00 0.00 0.00 80 1013.2
20260508050003 54 6 4.3 4.3 0.00 0.00 0.00 80 1013.2
20260508045503 53 3 4.3 4.3 0.00 0.00 0.00 80 1013.3
20260508045018 53 2 3.5 4.3 0.00 0.00 0.00 80 1013.2
20260508044503 53 10 4.3 5.2 0.00 0.00 0.00 80 1013.2
20260508044003 53 16 4.3 5.2 0.00 0.00 0.00 80 1013.2
20260508043503 53 14 4.3 5.2 0.00 0.00 0.00 79 1013.1
20260508043003 52 8 4.3 5.2 0.00 0.00 0.00 79 1013.2
20260508042503 52 5 1.7 4.3 0.00 0.00 0.00 78 1013.2
20260508042003 53 7 0.9 1.7 0.00 0.00 0.00 78 1013.0
20260508041504 53 7 1.7 2.6 0.00 0.00 0.00 78 1013.1
20260508041024 53 12 0.9 2.6 0.00 0.00 0.00 78 1013.0
20260508040503 53 20 0.9 1.7 0.00 0.00 0.00 77 1013.0
20260508040003 53 15 1.7 2.6 0.00 0.00 0.00 77 1013.0
20260508035524 53 11 2.6 2.6 0.00 0.00 0.00 77 1013.0
20260508035003 53 11 1.7 3.5 0.00 0.00 0.00 77 1012.9
20260508034503 53 20 0.9 3.5 0.00 0.00 0.00 77 1013.0
20260508034003 53 46 0.0 1.7 0.00 0.00 0.00 77 1013.0
20260508033524 53 0 0.0 0.0 0.00 0.00 0.00 77 1013.0
20260508033003 54 12 0.9 2.6 0.00 0.00 0.00 77 1013.1
20260508032503 54 14 1.7 2.6 0.00 0.00 0.00 78 1013.1
20260508032003 53 23 0.9 2.6 0.00 0.00 0.00 78 1012.9
20260508031524 53 54 0.9 4.3 0.00 0.00 0.00 78 1013.0
20260508031024 53 43 2.6 4.3 0.00 0.00 0.00 78 1012.9
20260508030503 53 43 3.5 7.8 0.00 0.00 0.00 79 1012.8
20260508030003 53 47 6.1 7.8 0.00 0.00 0.00 79 1012.7
20260508025503 53 47 6.1 7.8 0.00 0.00 0.00 79 1012.9
20260508025003 53 47 4.3 7.0 0.00 0.00 0.00 78 1012.7
20260508024524 53 54 4.3 5.2 0.00 0.00 0.00 78 1012.8
20260508024003 53 49 5.2 6.1 0.00 0.00 0.00 78 1012.8
20260508023503 53 46 4.3 6.1 0.00 0.00 0.00 78 1012.8
20260508023003 53 38 4.3 6.1 0.00 0.00 0.00 78 1012.8
20260508022503 53 17 5.2 6.1 0.00 0.00 0.00 78 1012.5
20260508022024 53 15 4.3 6.1 0.00 0.00 0.00 78 1012.5
20260508021524 53 13 3.5 5.2 0.00 0.00 0.00 78 1012.4
20260508021003 53 16 2.6 3.5 0.00 0.00 0.00 78 1012.8
20260508020503 53 19 2.6 3.5 0.00 0.01 0.00 78 1012.5
20260508020003 53 13 2.6 3.5 0.00 0.01 0.00 78 1012.5
20260508015503 53 6 3.5 3.5 0.00 0.01 0.00 78 1012.8
20260508015003 53 11 3.5 3.5 0.00 0.01 0.00 78 1012.7
20260508014503 53 15 3.5 4.3 0.00 0.01 0.00 78 1012.8
20260508014003 53 7 3.5 4.3 0.00 0.01 0.00 78 1012.7
20260508013524 53 1 3.5 4.3 0.00 0.01 0.00 78 1012.3
20260508013003 53 5 4.3 4.3 0.00 0.01 0.00 78 1012.5
20260508012524 53 13 3.5 5.2 0.00 0.01 0.00 78 1012.5
20260508012024 53 14 4.3 5.2 0.00 0.01 0.00 78 1012.4
20260508011503 53 4 5.2 5.2 0.00 0.01 0.00 78 1012.5
20260508011003 53 2 4.3 6.1 0.00 0.01 0.00 77 1012.4
20260508010503 53 9 4.3 6.1 0.00 0.01 0.00 77 1012.5
20260508010003 53 10 3.5 5.2 0.00 0.01 0.00 77 1012.5
20260508005503 53 8 3.5 3.5 0.00 0.01 0.00 77 1012.7
20260508005024 53 9 3.5 4.3 0.00 0.01 0.00 77 1012.5
20260508004524 53 11 3.5 4.3 0.00 0.01 0.00 76 1012.7
20260508004003 53 7 2.6 3.5 0.00 0.01 0.00 75 1012.8
20260508003503 53 4 1.7 2.6 0.00 0.01 0.00 75 1012.8
20260508003003 53 1 1.7 2.6 0.00 0.02 0.00 75 1012.8
20260508002503 54 360 0.9 1.7 0.00 0.02 0.00 74 1012.8
20260508002003 54 5 0.9 1.7 0.00 0.02 0.00 74 1012.7
20260508001503 54 15 0.9 1.7 0.00 0.02 0.00 74 1012.9
20260508001003 54 22 0.9 1.7 0.00 0.02 0.00 72 1012.9
20260508000503 54 21 0.9 1.7 0.00 0.02 0.00 74 1012.9
20260508000024 54 35 0.9 3.5 0.00 0.02 0.00 74 1012.8
20260507235503 54 39 1.7 3.5 0.00 0.02 0.00 74 1012.7
20260507235003 54 37 1.7 3.5 0.00 0.02 0.00 74 1012.7
20260507234503 54 22 0.0 2.6 0.00 0.02 0.00 73 1012.7
20260507234003 54 0 0.0 0.0 0.00 0.02 0.00 73 1012.5
20260507233503 54 0 0.0 0.0 0.00 0.02 0.00 73 1012.7
20260507233003 55 0 0.0 0.0 0.00 0.02 0.00 70 1012.5
20260507232503 55 0 0.0 0.0 0.00 0.02 0.00 70 1012.8
20260507232003 55 22 0.0 0.9 0.00 0.02 0.00 70 1012.7
20260507231525 55 9 0.0 0.9 0.00 0.02 0.00 70 1012.9
20260507231003 55 22 0.0 0.9 0.00 0.02 0.00 70 1012.9
20260507230503 55 22 0.0 0.9 0.00 0.02 0.00 69 1012.8
20260507230024 55 22 0.0 0.9 0.00 0.02 0.00 68 1012.9
20260507225503 55 0 0.0 0.0 0.00 0.02 0.00 67 1012.9
20260507225003 55 0 0.0 0.0 0.00 0.02 0.00 67 1012.8
20260507224504 55 0 0.0 0.0 0.00 0.02 0.00 67 1012.9
20260507224003 56 0 0.0 0.0 0.00 0.02 0.00 67 1012.9
20260507223524 56 0 0.0 0.0 0.00 0.02 0.00 67 1013.0
20260507223003 56 46 0.0 1.7 0.00 0.02 0.00 66 1012.9
20260507222524 56 46 0.0 1.7 0.00 0.04 0.00 66 1012.9
20260507222003 56 0 0.0 0.0 0.00 0.04 0.00 66 1012.9
20260507221524 56 0 0.0 0.0 0.00 0.04 0.00 67 1012.9
20260507221024 56 0 0.0 0.0 0.00 0.04 0.00 66 1012.7
20260507220503 57 85 0.0 0.9 0.00 0.04 0.00 65 1012.9
20260507220004 57 86 0.9 1.7 0.00 0.04 0.00 65 1012.7
20260507215503 57 71 1.7 3.5 0.00 0.04 0.04 65 1012.7
20260507215003 57 65 2.6 3.5 0.00 0.04 0.04 64 1012.7
20260507214503 58 65 2.6 3.5 0.00 0.04 0.04 64 1012.8
20260507214003 58 67 1.7 3.5 0.00 0.05 0.04 64 1012.5
20260507213503 58 67 0.9 3.5 0.00 0.05 0.04 64 1012.5
20260507213003 58 0 0.0 0.0 0.00 0.05 0.04 64 1012.5
20260507212524 58 67 0.0 0.9 0.00 0.05 0.04 63 1012.7
20260507212003 58 67 0.0 0.9 0.00 0.05 0.04 62 1012.5
20260507211503 58 0 0.0 0.0 0.00 0.05 0.04 62 1012.7
20260507211003 59 0 0.0 0.0 0.00 0.05 0.04 62 1012.5
20260507210503 59 0 0.0 0.0 0.00 0.05 0.04 61 1012.5
20260507210003 59 0 0.0 0.0 0.00 0.06 0.04 61 1012.5
20260507205503 59 0 0.0 0.0 0.00 0.06 0.04 61 1012.4
20260507205003 59 0 0.0 0.0 0.00 0.06 0.04 61 1012.5
20260507204503 59 0 0.0 0.0 0.00 0.09 0.04 60 1012.4
20260507204024 59 0 0.0 0.0 0.00 0.11 0.04 60 1012.5
20260507203503 59 0 0.0 0.0 0.00 0.11 0.04 59 1012.3
20260507203003 59 0 0.0 0.0 0.00 0.11 0.04 58 1012.5
20260507202503 59 0 0.0 0.0 0.00 0.11 0.04 58 1012.3
20260507202024 60 0 0.0 0.0 0.00 0.11 0.04 58 1012.3
20260507201503 60 0 0.0 0.0 0.00 0.11 0.04 58 1012.2
20260507201003 60 0 0.0 0.0 0.00 0.11 0.04 58 1012.1
20260507200503 60 0 0.0 0.0 0.00 0.11 0.04 58 1012.1
20260507200024 60 0 0.0 0.0 0.00 0.11 0.04 58 1011.9
20260507195503 60 0 0.0 0.0 0.00 0.11 0.04 57 1011.9
20260507195003 61 0 0.0 0.0 0.00 0.11 0.04 57 1011.9
20260507194503 61 0 0.0 0.0 0.00 0.11 0.04 57 1011.8
20260507194003 61 0 0.0 0.0 0.00 0.11 0.04 57 1011.7
20260507193503 61 0 0.0 0.0 0.00 0.11 0.04 57 1011.7
20260507193003 61 0 0.0 0.0 0.00 0.11 0.04 57 1011.6
20260507192503 61 0 0.0 0.0 0.00 0.11 0.04 56 1011.4
20260507192003 61 0 0.0 0.0 0.00 0.11 0.04 56 1011.5
20260507191503 61 0 0.0 0.0 0.00 0.11 0.04 56 1011.3
20260507191003 61 0 0.0 0.0 0.00 0.11 0.04 56 1011.2
20260507190504 61 0 0.0 0.0 0.00 0.11 0.04 56 1011.1
20260507190004 61 0 0.0 0.0 0.00 0.11 0.04 56 1011.4
20260507185503 62 0 0.0 0.0 0.00 0.11 0.04 55 1011.2
20260507185025 62 0 0.0 0.0 0.00 0.11 0.04 55 1011.2
20260507184503 62 0 0.0 0.0 0.00 0.11 0.04 54 1011.2
20260507184003 63 0 0.0 0.0 0.00 0.11 0.04 53 1011.1
20260507183503 63 0 0.0 0.0 0.00 0.11 0.04 53 1011.0
20260507183003 64 263 0.9 2.6 0.00 0.11 0.04 49 1011.0
20260507182503 64 251 0.9 2.6 0.00 0.12 0.04 49 1010.9
20260507182003 64 245 2.6 4.3 0.00 0.12 0.04 48 1010.8
20260507181504 65 268 3.5 4.3 0.00 0.14 0.04 48 1011.0
20260507181003 65 306 2.6 3.5 0.00 0.17 0.04 47 1010.8
20260507180503 66 307 3.5 4.3 0.00 0.20 0.04 46 1010.7
20260507180003 66 275 4.3 5.2 0.00 0.20 0.04 46 1010.5
20260507175503 66 245 4.3 6.1 0.00 0.21 0.04 45 1010.6
20260507175003 67 246 5.2 6.1 0.00 0.22 0.04 45 1010.5
20260507174503 67 251 4.3 6.1 0.00 0.22 0.04 45 1010.6
20260507174003 67 237 2.6 6.1 0.00 0.24 0.04 45 1010.4
20260507173503 67 236 2.6 4.3 0.00 0.25 0.04 45 1010.3
20260507173024 68 263 3.5 5.2 0.00 0.26 0.04 45 1010.3
20260507172503 68 276 5.2 6.1 0.00 0.27 0.04 44 1010.3
20260507172003 68 262 5.2 6.1 0.00 0.27 0.04 44 1010.2
20260507171503 69 263 4.3 6.1 0.00 0.28 0.04 44 1010.2
20260507171024 69 298 5.2 6.1 0.00 0.28 0.04 44 1010.3
20260507170503 69 281 5.2 6.1 0.00 0.28 0.04 44 1010.3
20260507170003 69 260 5.2 6.1 0.00 0.28 0.04 44 1010.3
20260507165503 69 282 6.1 7.8 0.00 0.28 0.04 44 1010.2
20260507165003 69 271 7.0 7.8 0.00 0.28 0.04 43 1010.3
20260507164524 69 252 7.0 8.7 0.00 0.28 0.04 43 1010.3
20260507164003 69 239 7.0 8.7 0.00 0.28 0.04 43 1010.3
20260507163524 69 237 7.0 8.7 0.00 0.28 0.04 43 1010.2
20260507163003 70 250 4.3 7.8 0.00 0.28 0.04 43 1010.2
20260507162503 70 269 3.5 7.0 0.00 0.28 0.04 43 1010.1
20260507162003 70 294 3.5 4.3 0.00 0.28 0.04 43 1010.1
20260507161503 70 314 4.3 5.2 0.00 0.28 0.04 42 1010.2
20260507161003 70 322 4.3 5.2 0.00 0.28 0.04 42 1010.2
20260507160503 70 271 4.3 7.0 0.00 0.28 0.04 43 1010.2
20260507160003 70 233 4.3 7.0 0.00 0.28 0.04 43 1010.1
20260507155503 70 208 5.2 7.8 0.00 0.28 0.04 43 1010.0
20260507155003 70 226 5.2 7.8 0.00 0.28 0.04 43 1010.1
20260507154503 70 271 2.6 6.1 0.00 0.28 0.04 44 1010.2
20260507154003 70 235 2.6 6.1 0.00 0.28 0.04 44 1010.2
20260507153504 70 227 5.2 8.7 0.00 0.28 0.04 44 1010.1
20260507153003 70 248 7.0 8.7 0.00 0.28 0.04 43 1010.1
20260507152503 71 274 4.3 8.7 0.00 0.28 0.04 44 1010.2
20260507152024 71 294 2.6 3.5 0.00 0.28 0.04 45 1010.2
20260507151503 71 261 2.6 8.7 0.00 0.28 0.04 45 1010.2
20260507151003 70 245 3.5 8.7 0.00 0.28 0.04 44 1010.2
20260507150503 70 272 2.6 4.3 0.00 0.28 0.04 46 1010.4
20260507150024 70 305 4.3 8.7 0.00 0.28 0.04 46 1010.2
20260507145503 70 309 5.2 8.7 0.00 0.28 0.04 44 1010.3
20260507145018 70 290 5.2 7.0 0.00 0.28 0.04 45 1010.2
20260507144503 70 273 4.3 7.0 0.00 0.28 0.04 46 1010.3
20260507144003 70 328 2.6 6.1 0.00 0.28 0.04 47 1010.2
20260507143524 70 141 2.6 3.5 0.00 0.28 0.04 46 1010.2
20260507143003 70 170 3.5 7.0 0.00 0.28 0.04 46 1010.5
20260507142503 70 224 2.6 7.0 0.00 0.28 0.04 46 1010.5
20260507142003 70 299 1.7 3.5 0.00 0.28 0.04 48 1010.4
20260507141524 69 223 2.6 7.0 0.00 0.28 0.04 48 1010.3
20260507141024 69 233 5.2 7.0 0.00 0.28 0.04 49 1010.4
20260507140503 70 240 5.2 7.0 0.00 0.28 0.04 50 1010.7
20260507140003 70 242 4.3 7.0 0.00 0.28 0.04 50 1010.5
20260507135503 70 250 3.5 7.0 0.00 0.28 0.04 51 1010.6
20260507135003 70 248 3.5 4.3 0.00 0.28 0.04 52 1010.5
20260507134503 69 287 2.6 4.3 0.00 0.28 0.04 52 1010.6
20260507134003 69 297 3.5 7.0 0.00 0.28 0.04 51 1010.7
20260507133503 68 304 5.2 7.0 0.00 0.28 0.04 51 1010.8
20260507133003 69 302 4.3 7.0 0.00 0.28 0.04 51 1010.9
20260507132503 69 268 3.5 7.8 0.00 0.28 0.04 52 1010.8
20260507132003 68 242 3.5 7.8 0.00 0.28 0.04 53 1010.8
20260507131503 68 219 6.1 8.7 0.00 0.28 0.04 54 1010.8
20260507131003 68 254 6.1 8.7 0.00 0.32 0.04 54 1011.1
20260507130503 68 284 5.2 8.7 0.00 0.33 0.04 53 1010.8
20260507130018 68 254 5.2 8.7 0.00 0.38 0.04 53 1011.0
20260507125503 68 247 4.3 7.0 0.00 0.41 0.04 54 1011.0
20260507125003 68 229 4.3 7.0 0.00 0.50 0.04 55 1011.0
20260507124503 68 223 6.1 8.7 0.00 0.51 0.04 55 1011.1
20260507124003 68 229 6.1 8.7 0.00 0.53 0.04 56 1011.2
20260507123503 67 245 5.2 7.0 0.00 0.53 0.04 57 1011.1
20260507123003 67 220 5.2 7.0 0.00 0.53 0.04 58 1011.1
20260507122503 66 221 5.2 7.0 0.00 0.53 0.04 57 1011.1
20260507122024 66 258 3.5 7.0 0.00 0.53 0.04 58 1011.2
20260507121503 67 307 4.3 8.7 0.00 0.53 0.04 57 1010.8
20260507121003 66 119 6.1 8.7 0.00 0.53 0.04 57 1011.0
20260507120503 65 146 5.2 7.0 0.00 0.53 0.04 60 1011.2
20260507120004 65 237 3.5 7.0 0.00 0.53 0.04 60 1011.1
20260507115503 64 255 4.3 6.1 0.00 0.53 0.04 61 1011.1
20260507115003 64 270 3.5 6.1 0.00 0.53 0.04 61 1011.1
20260507114504 64 336 2.6 4.3 0.00 0.53 0.04 62 1011.2
20260507114004 64 295 3.5 4.3 0.00 0.53 0.04 61 1011.2
20260507113504 64 292 3.5 4.3 0.00 0.53 0.04 63 1011.3
20260507113005 63 286 0.9 4.3 0.00 0.53 0.04 68 1011.4
20260507112504 63 13 0.9 4.3 0.00 0.53 0.04 69 1011.5
20260507112004 63 234 2.6 4.3 0.00 0.53 0.04 68 1011.5
20260507111506 62 235 3.5 4.3 0.00 0.53 0.04 68 1011.5
20260507111004 62 266 3.5 5.2 0.00 0.53 0.04 67 1011.5
20260507110507 62 273 2.6 5.2 0.00 0.53 0.04 68 1011.5
20260507110005 62 246 2.6 3.5 0.00 0.53 0.04 68 1011.7
20260507105504 62 277 2.6 3.5 0.00 0.53 0.04 67 1011.6
20260507105004 62 265 1.7 3.5 0.00 0.53 0.04 67 1011.8
20260507104504 62 209 1.7 4.3 0.00 0.53 0.04 67 1011.8
20260507104004 62 249 3.5 4.3 0.00 0.53 0.04 66 1011.9
20260507103504 63 294 3.5 5.2 0.00 0.53 0.04 66 1011.9
20260507103004 63 303 4.3 5.2 0.00 0.53 0.04 66 1011.9
20260507102504 64 317 3.5 5.2 0.00 0.53 0.04 63 1011.9
20260507102006 64 273 3.5 5.2 0.00 0.53 0.04 64 1011.9
20260507101504 64 205 3.5 5.2 0.00 0.53 0.04 65 1012.1
20260507101004 64 186 2.6 5.2 0.00 0.53 0.04 65 1012.0
20260507100504 64 190 3.5 7.8 0.00 0.53 0.04 65 1011.9
20260507100025 64 216 5.2 7.8 0.00 0.53 0.04 65 1012.0
20260507095504 64 230 4.3 7.0 0.00 0.54 0.04 66 1011.9
20260507095004 64 264 4.3 6.1 0.00 0.54 0.04 65 1011.9
20260507094504 64 261 4.3 7.0 0.00 0.54 0.04 65 1012.0
20260507094004 64 233 4.3 7.0 0.00 0.54 0.04 67 1011.9
20260507093504 64 207 4.3 5.2 0.00 0.54 0.04 68 1011.9
20260507093004 64 213 4.3 5.2 0.00 0.54 0.04 69 1011.8
20260507092504 64 216 4.3 7.0 0.00 0.54 0.04 69 1011.7
20260507092004 64 220 4.3 7.0 0.00 0.54 0.04 69 1011.9
20260507091504 63 267 3.5 4.3 0.00 0.54 0.04 72 1011.8
20260507091004 63 307 1.7 4.3 0.00 0.54 0.04 72 1011.7
20260507090504 62 33 0.9 2.6 0.00 0.54 0.04 73 1011.8
20260507090005 62 117 2.6 6.1 0.00 0.54 0.04 73 1011.7
20260507085504 62 129 3.5 6.1 0.00 0.54 0.04 74 1011.7
20260507085004 62 72 2.6 3.5 0.00 0.54 0.04 75 1011.8
20260507084525 62 39 1.7 3.5 0.00 0.54 0.04 75 1011.7
20260507084004 61 229 1.7 3.5 0.00 0.54 0.04 76 1011.7
20260507083504 61 97 4.3 5.2 0.00 0.54 0.04 76 1011.7
20260507083005 61 85 3.5 7.0 0.00 0.54 0.04 78 1011.7
20260507082504 61 145 1.7 7.0 0.00 0.54 0.04 80 1011.8
20260507082025 60 55 1.7 6.1 0.00 0.54 0.04 80 1011.7
20260507081504 59 36 3.5 6.1 0.00 0.54 0.04 80 1011.7
20260507081004 58 22 3.5 3.5 0.00 0.54 0.04 80 1011.6
20260507080504 58 15 3.5 3.5 0.00 0.54 0.04 80 1011.5
20260507080005 58 10 3.5 3.5 0.00 0.54 0.04 80 1011.4
20260507075504 57 9 3.5 4.3 0.00 0.54 0.04 80 1011.5
20260507075004 57 18 4.3 6.1 0.00 0.54 0.04 80 1011.6
20260507074504 57 25 5.2 6.1 0.00 0.54 0.04 81 1011.5
20260507074025 57 32 5.2 6.1 0.00 0.54 0.04 82 1011.5
20260507073525 57 28 4.3 6.1 0.00 0.54 0.04 83 1011.5
20260507073004 56 17 4.3 6.1 0.00 0.54 0.04 84 1011.5
20260507072525 55 15 5.2 6.1 0.00 0.54 0.04 84 1011.4
20260507072004 55 13 5.2 7.0 0.00 0.54 0.04 84 1011.6
20260507071504 54 11 3.5 7.0 0.00 0.54 0.04 85 1011.4
20260507071004 54 7 2.6 4.3 0.00 0.56 0.04 89 1011.5
20260507070504 53 20 3.5 6.1 0.00 0.56 0.04 89 1011.4
20260507070009 53 15 4.3 6.1 0.00 0.56 0.04 89 1011.4
20260507065504 52 7 5.2 7.0 0.00 0.56 0.04 89 1011.3
20260507065004 52 360 5.2 7.0 0.00 0.56 0.04 90 1011.3
20260507064504 52 4 5.2 7.0 0.00 0.56 0.04 90 1011.3
20260507064004 52 9 5.2 7.0 0.00 0.56 0.04 90 1011.2
20260507063504 52 9 5.2 7.0 0.00 0.56 0.04 90 1011.0
20260507063004 51 8 5.2 6.1 0.00 0.56 0.04 90 1011.2
20260507062504 51 13 5.2 9.6 0.00 0.56 0.04 90 1011.1